Weather History for Plymouth, MA

Change the Weather History Date:

Thursday, January 16, 2014

  Actual Average Record
Temperature  
Mean Temperature 37 °F -  
Max Temperature 39 °F 35 °F 61 °F (1953)
Min Temperature 35 °F 15 °F -8 °F (2004)
Degree Days  
Heating Degree Days 28    
Moisture  
Dew Point 36 °F    
Average Humidity 93    
Maximum Humidity 97    
Minimum Humidity 89    
Precipitation  
Precipitation 0.00 in - - ()
Sea Level Pressure  
Sea Level Pressure 29.89 in    
Wind  
Wind Speed 1 mph (NNW)    
Max Wind Speed 8 mph    
Max Gust Speed -    
Visibility 1 miles    
Events Fog    
Averages and records for this station are not official NWS values.
T = Trace of Precipitation, MM = Missing Value Source: NWS Daily Summary

Daily Weather History Graph

Daily Weather History Graph

Search for Another Location

Airport:

Trip Planner

Search our weather history database for the weather conditions in past years. The results will help you decide how hot, cold, wet, or windy it might be!

Date:

Astronomy

Jan. 16, 2014 Rise Set
Actual Time 7:07 AM EST 4:38 PM EST
Civil Twilight 6:37 AM EST 5:08 PM EST
Nautical Twilight 6:02 AM EST 5:43 PM EST
Astronomical Twilight 5:29 AM EST 6:16 PM EST
Moon 5:28 PM EST (1/16) 6:58 AM EST (1/16)
Length of Visible Light 10h 31m
Length of Day
9h 30m
Full, 100% of the Moon is Illuminated
Jan 16
Full
Jan 24
Last Quarter
Jan 30
New
Feb 6
First Quarter
Feb 14
Full

Hourly Weather History & Observations

Time (EST) Temp. Windchill Dew Point Humidity Pressure Visibility Wind Dir Wind Speed Gust Speed Precip Events Conditions
12:52 AM 36.0 °F - 34.0 °F 93% 29.88 in 0.2 mi Calm Calm - N/A Fog Fog
1:46 AM 35.6 °F - 33.8 °F 93% 29.88 in 0.5 mi Calm Calm - N/A Fog Fog
1:47 AM 36.0 °F - 34.0 °F 93% 29.89 in 0.5 mi Calm Calm - N/A Fog Fog
2:00 AM 35.1 °F - 34.0 °F 96% 29.89 in 0.5 mi Calm Calm - N/A Fog Fog
2:12 AM 35.1 °F - 34.0 °F 96% 29.88 in 0.2 mi Calm Calm - N/A Fog Fog
2:28 AM 35.1 °F 32.2 °F 33.1 °F 92% 29.88 in 0.5 mi NW 3.5 mph - N/A Fog Fog
2:36 AM 35.1 °F - 33.1 °F 92% 29.88 in 0.2 mi Calm Calm - N/A Fog Fog
2:49 AM 35.6 °F - 33.8 °F 93% 29.88 in 0.5 mi Calm Calm - N/A Fog Fog
2:52 AM 35.1 °F - 33.1 °F 92% 29.88 in 0.5 mi Calm Calm - N/A Fog Fog
3:52 AM 35.1 °F - 33.1 °F 92% 29.87 in 0.5 mi Calm Calm - N/A Fog Fog
4:20 AM 35.1 °F - 33.1 °F 92% 29.86 in 0.2 mi Calm Calm - N/A Fog Fog
4:52 AM 35.1 °F - 34.0 °F 96% 29.86 in 0.5 mi Calm Calm - N/A Fog Fog
5:52 AM 36.0 °F - 33.1 °F 89% 29.86 in 0.5 mi Calm Calm - N/A Fog Fog
6:52 AM 37.0 °F - 35.1 °F 93% 29.88 in 0.5 mi Calm Calm - N/A Fog Fog
7:27 AM 37.0 °F 34.5 °F 35.1 °F 93% 29.88 in 0.2 mi NNE 3.5 mph - N/A Fog Fog
7:52 AM 37.0 °F 34.5 °F 35.1 °F 93% 29.87 in 0.2 mi NNE 3.5 mph - N/A Fog Fog
8:52 AM 37.9 °F - 36.0 °F 93% 29.88 in 0.2 mi Calm Calm - N/A Fog Fog
9:52 AM 39.0 °F - 37.0 °F 93% 29.89 in 0.2 mi Calm Calm - N/A Fog Fog
10:39 AM 39.9 °F - 37.9 °F 93% 29.91 in 0.5 mi Calm Calm - N/A Fog Fog
10:48 AM 39.2 °F - 37.4 °F 93% 29.90 in 0.2 mi Calm Calm - N/A Fog Fog
10:52 AM 39.0 °F - 37.9 °F 96% 29.91 in 0.2 mi Calm Calm - N/A Fog Fog
11:52 AM 39.0 °F 34.8 °F 37.0 °F 93% 29.89 in 0.2 mi WNW 5.8 mph - N/A Fog Fog
12:52 PM 39.0 °F 35.7 °F 37.0 °F 93% 29.87 in 0.2 mi North 4.6 mph - N/A Fog Fog
1:01 PM 39.0 °F 35.7 °F 37.0 °F 93% 29.86 in 0.5 mi North 4.6 mph - N/A Fog Fog
1:11 PM 39.0 °F 35.7 °F 37.0 °F 93% 29.85 in 0.2 mi North 4.6 mph - N/A Fog Fog
1:52 PM 39.0 °F 33.4 °F 37.0 °F 93% 29.84 in 0.2 mi East 8.1 mph - N/A Fog Fog
2:52 PM 39.0 °F 34.8 °F 37.0 °F 93% 29.87 in 0.2 mi NNE 5.8 mph - N/A Fog Fog
3:52 PM 37.9 °F 32.7 °F 36.0 °F 93% 29.87 in 0.2 mi NNE 6.9 mph - N/A Fog Fog
4:52 PM 39.0 °F 36.8 °F 37.0 °F 93% 29.87 in 0.2 mi North 3.5 mph - N/A Fog Fog
5:52 PM 39.0 °F 36.8 °F 37.0 °F 93% 29.87 in 0.5 mi North 3.5 mph - N/A Fog Fog
6:16 PM 39.9 °F 36.7 °F 37.0 °F 89% 29.87 in 1.8 mi NNE 4.6 mph - N/A   Overcast
6:22 PM 39.0 °F 36.8 °F 37.0 °F 93% 29.87 in 3.0 mi ENE 3.5 mph - N/A   Overcast
6:52 PM 39.9 °F - 37.0 °F 89% 29.89 in 5.0 mi Calm Calm - N/A   Overcast
7:52 PM 39.0 °F - 37.0 °F 93% 29.91 in 4.0 mi Calm Calm - N/A   Overcast
8:21 PM 39.0 °F 35.7 °F 37.0 °F 93% 29.90 in 4.0 mi NNE 4.6 mph - N/A   Overcast
8:36 PM 39.9 °F - 37.0 °F 89% 29.90 in 5.0 mi Calm Calm - N/A   Overcast
8:52 PM 39.0 °F 36.8 °F 37.0 °F 93% 29.92 in 4.0 mi West 3.5 mph - N/A   Overcast
9:16 PM 39.0 °F - 37.0 °F 93% 29.91 in 2.5 mi Calm Calm - N/A   Overcast
9:27 PM 39.0 °F 36.8 °F 37.0 °F 93% 29.91 in 3.0 mi WNW 3.5 mph - N/A   Overcast
9:52 PM 39.0 °F 36.8 °F 37.0 °F 93% 29.92 in 2.5 mi West 3.5 mph - N/A   Overcast
10:25 PM 39.0 °F - 37.0 °F 93% 29.92 in 2.0 mi Calm Calm - N/A   Overcast
10:42 PM 39.0 °F 34.8 °F 36.0 °F 89% 29.92 in 1.8 mi West 5.8 mph - N/A   Overcast
10:52 PM 39.0 °F 35.7 °F 37.0 °F 93% 29.92 in 2.0 mi West 4.6 mph - N/A   Overcast
10:59 PM 39.0 °F 34.8 °F 37.0 °F 93% 29.92 in 1.8 mi West 5.8 mph - N/A   Overcast
11:08 PM 39.0 °F 36.8 °F 37.0 °F 93% 29.92 in 2.5 mi WNW 3.5 mph - N/A   Overcast
11:26 PM 39.0 °F - 36.0 °F 89% 29.92 in 2.0 mi Calm Calm - N/A   Overcast
11:52 PM 37.9 °F 35.5 °F 37.0 °F 97% 29.93 in 2.0 mi WSW 3.5 mph - N/A   Overcast